Zurück zum Katalog

CZ-6A DEB

AktivSSO
NORAD 54291·DEBRIS·🇨🇳 China

Gestartet Nov 11, 2022 von Taiyuan Satellite Launch Center

Loading…

Nächste Überflüge (nächste 24 Stunden)

TLE

AktuellSource: Space-Track

Epoche: Sep 13, 2026, 22:45 UTC

1 54291U 22151AJ  26256.94852370 -.00000024  00000-0  11327-4 0  9996
2 54291  98.8721 246.4171 0081615  68.3172 292.6662 14.05792963196365

Verfolge CZ-6A DEB in Echtzeit mit AllMySat

Download on the App Store